Weather Roundup
Issued by NWS Chicago, IL

Home | Current Version | Previous Version | Graphics & Text | Print | Product List | Glossary On
Versions: 1 2 3 4 5 6 7 8 9 10 11 12 13 14 15 16 17 18 19 20 21 22 23 24 25 26 27 28 29 30 31 32 33 34 35 36 37 38 39 40 41 42 43 44 45 46 47 48 49 50
056
NZUS59 KLOT 140803
HRRLOT

CHICAGO AREA WEATHER ROUNDUP
NATIONAL WEATHER SERVICE CHICAGO/ROMEOVILLE IL
200 AM CST SUN FEB 14 2016

NOTE: "FAIR" INDICATES FEW OR NO CLOUDS BELOW 12,000 FEET WITH NO
SIGNIFICANT WEATHER AND/OR OBSTRUCTIONS TO VISIBILITY.

* THESE STATIONS ARE NOT UNDER NWS QUALITY CONTROL. THEY ALSO MAY NOT
  REPORT WEATHER SUCH AS PRECIPITATION OR FOG.

ILZ005-006-012>014-019>023-140900-
NORTHEAST ILLINOIS

CITY           SKY/WX    TMP DP  RH WIND       PRES   REMARKS
OHARE          CLOUDY    11  -2  56 E5        30.43F WCI   3
MIDWAY         CLOUDY    13  -1  54 SE6       30.44F WCI   4
AURORA         CLOUDY    15   2  56 E8        30.43S WCI   4
LANSING*       CLOUDY    11   1  63 SE7       30.45F WCI   1
WAUKEGAN       PTCLDY     3  -2  79 CALM      30.42F
DUPAGE AIRPORT CLOUDY    11  -2  56 E3        30.42S
WHEELING       PTCLDY     8   1  73 CALM      30.44F
$$

WIZ051-052-058>065-066-070>072-140900-
SOUTHEAST WISCONSIN

CITY           SKY/WX    TMP DP  RH WIND       PRES   REMARKS
MILWAUKEE      CLOUDY     4  -5  66 CALM      30.43F
KENOSHA*       CLOUDY     4  -4  69 CALM      30.43F
RACINE*        CLOUDY     2  -6  69 CALM      30.45F
BURLINGTON     CLOUDY    -2  -6  84 CALM      30.42F
$$

INZ001>003-010>013-019-020-140900-
NORTHWEST INDIANA

CITY           SKY/WX    TMP DP  RH WIND       PRES   REMARKS
GARY*          CLOUDY    13   1  58 SE5       30.46F WCI   5
MICHIGAN CITY* NOT AVBL
RENSSELAER*    NOT AVBL
VALPARAISO     CLOUDY     6   1  80 E6        30.44F WCI  -4
$$

LMZ740>746-140900-
SOUTHERN LAKE MICHIGAN

STATION/POSITION TIME  SKY/WX   TEMP WIND        PRES    VSBY
                                AIR  DIR/SP/G
                 (UTC)          (F)  (DEG/KT/KT) (MB)    (MI)
HARRISON CRIB    0700            17  190/  7/ 10   N/A
BURNHAM HARBOR   0800            13  180/  4/  5   N/A
CALUMET HARBOR   0700            12  140/  5/  8 1030.6F
BURNS HARBOR     0700            11  180/  7/ 10 1032.2S
MICHIGAN CITY    0700             9  130/  8/  9   N/A
$$

ABBREVIATIONS USED IN REMARKS
   TC - TEMPERATURE IN CELSIUS
  WCI - WIND CHILL INDEX
   HX - HEAT INDEX
  VSB - VISIBILITY
$$




USA.gov is the U.S. government's official web portal to all federal, state and local government web resources and services.